Location: Boiro
(42.6475°N, 8.8834°W)
Time: 12:59:35
(UTC+02:00)

SL-8 DEB - Pass Details

Date: 03 July 2022
Orbit: 890 x 1013 km, 83.1° (Epoch: 16 August)

Event Time Altitude Azimuth Distance (km) Brightness Sun altitude
Rises 01:36:00 0° 350° (N) 3,611 ? -22.7°
Reaches altitude 10° 01:38:31 10° 349° (NNW) 2,645 ? -22.9°
Maximum altitude 01:44:30 72° 266° (W) 956 ? -23.1°
Enters shadow 01:46:13 47° 197° (SSW) 1,185 ? -23.2°
